Location: Chá?ovice
(49.8200°N, 14.5805°E)
Time: 18:55:09
(UTC+00:00)

Daily predictions for brighter satellites

Satellite Brightness Start Highest point End
(mag) Time Altitude Azimuth Time Altitude Azimuth Time Altitude Azimuth
In-Cosmos 22 4.2 17:22:28 10° N 17:27:55 60° ENE 17:33:12 10° SSE
Cosmos 2278 3.9 17:22:30 10° SSW 17:28:11 81° WNW 17:33:55 10° NNE
Cosmos 2218 Rocket 4.4 17:25:20 10° N 17:31:10 42° ENE 17:36:57 10° SE
Cosmos 1943 Rocket 4.3 17:30:42 10° N 17:32:56 12° NNE 17:35:11 10° NE
USA 267 3.6 17:26:59 10° E 17:33:21 56° NNE 17:39:44 10° WNW
Cosmos 1666 Rocket 3.7 17:30:02 10° S 17:34:22 53° E 17:38:44 10° NNE
USA 306 3.4 17:31:11 10° WNW 17:34:51 44° N 17:38:34 10° ENE
Cosmos 2237 4.2 17:30:11 10° SSW 17:35:53 74° ESE 17:41:37 10° NNE
SL-8 R/B 3.7 17:31:47 10° W 17:36:32 76° S 17:41:18 10° E
Cosmos 1707 Rocket 3.6 17:35:50 10° N 17:40:18 86° E 17:44:46 10° S
CZ-4C R/B 4.3 17:38:07 10° NE 17:40:40 19° E 17:43:12 10° SE
CZ-4B R/B 3.4 17:36:47 10° SE 17:41:50 48° ENE 17:46:55 10° N
CZ-4C R/B 3.5 17:37:14 10° W 17:41:57 39° NNW 17:47:49 10° NE
USA 307 3.0 17:41:51 10° WNW 17:44:16 31° N 17:46:44 10° ENE
Meteor 1-11 Rocket 3.9 17:38:49 10° SSW 17:44:21 81° WNW 17:50:00 10° N
USA 238 4.5 17:39:07 10° WSW 17:45:22 51° NW 17:52:11 10° NE
USA 186 3.2 17:44:27 11° ESE 17:46:22 18° ENE 17:48:32 10° NNE
Cosmos 2322 Rocket 2.2 17:41:44 10° SSW 17:47:16 65° ESE 17:52:51 10° NNE
Meteor 2-9 Rocket 4.2 17:42:19 10° S 17:47:51 70° E 17:53:36 10° NNE
Cosmos 375 4.4 17:43:43 10° SW 17:47:54 78° NW 17:51:41 10° NE
Meteor 1-21 4.4 17:42:31 10° N 17:48:16 55° ENE 17:53:56 10° SSE
USA 81 4.5 17:43:28 10° SSE 17:48:19 39° E 17:53:12 10° NNE
Cosmos 1271 Rocket 3.7 17:46:07 10° SSW 17:49:55 52° WNW 17:53:45 10° N
Cosmos 2278 Rocket 3.7 17:45:56 10° N 17:50:14 21° NE 17:54:11 11° E
IGS 5A 3.4 17:47:01 10° SSE 17:51:07 90° W 17:55:15 10° NNW
PSLV R/B 4.0 17:48:12 10° SE 17:51:52 48° ENE 17:55:38 10° N
Okean O Rocket 2.2 17:47:57 10° SE 17:52:00 37° ENE 17:56:05 10° N
Landsat 7 3.9 17:48:15 10° SSE 17:52:50 55° ENE 17:57:26 10° N
Okean 1-7 3.5 17:49:23 10° N 17:53:28 40° ENE 17:57:32 10° SE
Cosmos 1626 3.5 17:51:08 10° NNW 17:54:26 40° W 17:57:42 10° SSW
Lacrosse 5 2.5 17:49:47 10° WSW 17:54:50 57° NNW 17:59:53 10° NE
Cosmos 1110 Rocket 4.0 17:51:06 10° NNW 17:56:18 72° ENE 18:01:30 10° SSE
CSL-04 Rocket 4.2 17:53:14 10° SE 17:58:01 36° ENE 18:02:49 10° N
Landsat 4 3.6 17:54:30 10° SSE 17:58:02 61° ENE 18:01:38 10° N
Cosmos 1340 Rocket 3.2 17:54:46 10° N 17:58:41 45° ENE 18:02:35 10° SSE
COSMO-SKYMED 1 4.1 17:57:02 10° N 18:01:09 41° WNW 18:05:13 10° SW
Cosmos 1844 4.0 17:55:29 10° NNW 18:01:18 74° WSW 18:07:02 10° SSE
Resurs 01 Rocket 2.9 17:58:43 14° ESE 18:01:22 24° ENE 18:04:56 10° N
Cosmos 1536 4.5 17:58:04 10° SW 18:01:48 38° WNW 18:05:33 10° N
Cosmos 864 Rocket 4.5 17:56:08 10° N 18:02:28 70° ENE 18:08:41 10° SSE
MOS 1-B 4.3 17:57:25 10° SSE 18:03:08 68° ENE 18:08:53 10° NNW
Cosmos 2181 Rocket 4.1 17:57:25 10° SSE 18:03:39 55° E 18:09:52 10° NNE
SME Rocket 4.4 17:59:22 10° SE 18:07:48 61° ENE 18:13:18 10° N
YAOGAN 1 3.4 18:04:16 10° S 18:08:28 52° W 18:12:42 10° NNW
SJ-6B 2.8 18:04:43 10° SSE 18:08:42 64° ENE 18:12:43 10° N
Cosmos 1862 Rocket 4.0 18:06:04 10° NNW 18:10:21 62° W 18:14:37 10° S
DELTA 2 DEB (DPAF) 4.3 18:07:24 10° NNE 18:11:45 74° WNW 18:16:03 10° SSW
Cosmos 1733 3.1 18:08:37 10° S 18:12:13 58° E 18:15:52 10° NNE
Cosmos 1633 Rocket 3.2 18:08:41 10° SSW 18:13:00 78° W 18:17:23 10° N
Cosmos 2333 Rocket 2.2 18:07:42 10° S 18:13:12 58° ESE 18:18:46 10° NE
Cosmos 2333 4.3 18:08:25 10° S 18:13:49 52° ESE 18:19:18 10° NE
Okean-O 3.6 18:14:20 20° ESE 18:16:29 29° ENE 18:20:20 10° N
CZ-4 R/B 1.3 18:14:01 10° SSE 18:17:55 81° WSW 18:21:48 10° NNW
Cosmos 2360 Rocket 2.1 18:12:28 10° SSW 18:18:06 81° ESE 18:23:48 10° NNE
COSMOS 2428 3.6 18:14:13 10° SSE 18:18:42 25° ESE 18:23:12 10° NE
Cosmos 2322 4.4 18:15:20 10° SSE 18:20:19 32° ESE 18:25:19 10° NE
Cosmos 1707 4.3 18:17:13 10° NNW 18:20:43 36° W 18:24:12 10° SSW
USA 308 2.5 18:17:18 10° WNW 18:20:44 66° NNE 18:22:35 27° E
Resurs 1-3 3.5 18:17:13 10° SSE 18:21:34 73° ENE 18:25:56 10° N
ATLAS 3B R/B 3.6 18:16:35 10° SSE 18:21:53 24° ESE 18:27:27 10° ENE
Cosmos 2242 Rocket 4.3 18:20:14 10° N 18:24:18 34° ENE 18:26:06 25° ESE
Cosmos 1975 2.6 18:20:41 10° S 18:24:33 77° E 18:28:26 10° NNE
Cosmos 1302 Rocket 4.1 18:22:42 10° NNW 18:27:57 61° ENE 18:31:27 21° SE
CENTAUR R/B 4.4 18:24:50 10° WNW 18:30:47 29° N 18:37:44 10° NE
Cosmos 1331 Rocket 4.4 18:27:38 10° NNW 18:32:51 66° WSW 18:38:04 10° S
NOSS 2-3 (C) 3.6 18:32:49 10° SSW 18:36:19 40° ESE 18:37:55 27° ENE
Cosmos 1470 Rocket 3.9 18:34:32 10° SSW 18:38:51 68° WNW 18:43:14 10° N
Cosmos 1726 2.7 18:35:48 10° SSW 18:39:07 52° WNW 18:42:28 10° N
USA 215 3.3 18:33:38 10° ENE 18:40:05 56° SE 18:46:29 10° SW
NOSS 2-3 (D) 3.6 18:37:52 10° SSW 18:41:24 41° ESE 18:42:15 36° E
Cosmos 1821 Rocket 3.9 18:36:00 10° N 18:42:14 76° E 18:48:32 10° SSE
Okean 3 4.3 18:41:33 10° NNW 18:45:33 49° W 18:49:31 10° SSW
COSMOS 2455 3.1 18:39:46 10° NNW 18:45:42 55° NE 18:48:29 30° ESE
Meteor 2-10 4.5 18:41:03 10° SSW 18:46:47 74° WNW 18:52:31 10° N
SPOT 1/Viking Rocket 3.4 18:43:07 16° SSE 18:47:17 83° ENE 18:52:28 10° NNW
Ariane Rocket 4.3 18:48:15 22° ENE 18:48:48 22° ENE 18:52:41 10° N
BREEZE-M R/B 4.5 18:48:31 10° W 18:54:00 86° S 19:00:39 26° ESE
ISS -3.7 18:52:03 10° WNW 18:55:23 67° N 18:55:41 62° NE
USA 305 3.5 18:56:21 10° NW 18:57:46 26° NNW 18:57:46 26° NNW
Nadezhda 3 Rocket 4.0 18:52:54 10° S 18:59:09 64° E 19:05:28 10° NNE
Terra 3.4 19:02:45 19° NE 19:02:45 19° NE 19:05:43 10° NNE
Cosmos 1703 Rocket 4.4 19:01:23 10° NNW 19:05:42 50° W 19:09:36 12° SSW
SL-16 R/B 4.1 19:00:55 10° WSW 19:05:53 30° NW 19:10:52 10° NNE
Cosmos 1805 4.1 19:02:14 10° SSW 19:05:54 49° WNW 19:09:36 10° N
ADEOS Rocket 3.5 19:00:02 17° SSE 19:06:23 84° ENE 19:13:58 10° NNW
SL-14 R/B 4.4 19:03:41 10° NNW 19:07:27 42° W 19:10:26 15° SSW
Cosmos 2219 Rocket 2.1 19:04:16 10° SSW 19:09:52 85° WNW 19:15:31 10° NNE
USA 306 2.5 19:07:29 10° WNW 19:11:21 83° NNE 19:11:24 83° NE
NOSS 2-3 (E) 3.1 19:08:39 10° SW 19:12:24 86° SE 19:13:24 50° NE
Okean 2 4.0 19:11:28 10° NNW 19:15:24 53° W 19:17:04 30° SSW
USA 267 3.3 19:13:24 37° SE 19:16:15 78° SW 19:22:50 10° WNW
Cosmos 1933 Rocket 4.4 19:13:37 10° SSW 19:17:54 50° WNW 19:22:11 10° N
USA 186 3.7 19:17:06 22° SW 19:18:02 26° W 19:20:37 10° NW
Cosmos 1943 Rocket 2.9 19:13:15 10° NNW 19:18:30 36° NE 19:19:16 35° ENE
SL-8 R/B 3.7 19:14:12 10° W 19:18:54 61° SSW 19:19:18 58° S
Meteor 2-5 Rocket 4.1 19:14:57 10° N 19:20:28 43° ENE 19:20:49 43° E
USA 307 4.0 19:17:58 10° WNW 19:19:18 26° NW 19:19:18 26° NW
APEX 3.3 19:17:59 10° NW 19:21:49 70° W 19:21:49 70° W
Okean O Rocket 3.5 19:24:32 10° SSW 19:28:22 28° W 19:32:13 10° NW
SPOT 5 3.3 19:31:11 46° NE 19:31:11 46° NE 19:35:03 10° N
Cosmos 2322 Rocket 4.1 19:26:57 10° WSW 19:31:47 28° NW 19:36:37 10° NNE
CZ-4C R/B 4.3 19:27:32 10° NW 19:32:10 24° N 19:37:42 10° NE
CARTOSAT-1 3.7 19:32:57 61° SW 19:33:23 66° WSW 19:37:40 10° NNW
SPOT 3 Rocket 4.2 19:34:37 39° NE 19:34:37 39° NE 19:38:53 10° N
IRS-1C Rocket 4.1 19:33:25 51° S 19:34:45 79° WSW 19:40:03 10° NNW
Cosmos 2278 Rocket 2.1 19:29:29 10° NNW 19:35:12 83° ENE 19:36:01 66° SE
Resurs 01 Rocket 2.5 19:36:15 35° SW 19:37:35 46° W 19:41:54 10° NNW
Lacrosse 5 3.1 19:33:49 10° WNW 19:38:34 37° N 19:40:18 29° NE
ERS-1 Rocket 3.5 19:41:43 44° NE 19:41:43 44° NE 19:45:50 10° N
Cosmos 1818 3.6 19:39:51 10° NW 19:45:18 68° SW 19:45:50 63° SSW
BREEZE-M DEB (TANK) 4.2 19:34:23 10° WSW 19:49:28 66° S 19:50:17 60° SE
Okean-O 3.9 19:51:51 32° SW 19:52:49 36° W 19:56:55 10° NNW
BREEZE-M DEB (TANK) 4.5 19:52:40 10° W 19:54:41 32° SW 19:54:41 32° SW
Meteor 1-24 Rocket 3.7 19:51:58 10° N 19:57:04 69° NNE 19:57:04 69° NNE
Cosmos 2333 Rocket 3.9 19:52:49 10° WSW 19:57:50 32° NW 20:02:53 10° NNE
COSMOS 2428 3.0 19:56:51 10° SW 20:02:30 64° WNW 20:08:10 10° NNE
Cosmos 2360 Rocket 4.4 19:58:11 10° W 20:02:46 25° NW 20:07:23 10° NNE
Cosmos 1605 Rocket 3.8 19:56:41 10° N 20:02:49 85° E 20:02:57 84° ESE
Cosmos 2322 4.5 19:58:42 10° SW 20:04:16 52° NW 20:09:53 10° NNE
Cosmos 1535 Rocket 4.4 19:59:29 10° NNW 20:05:36 77° W 20:06:17 68° SSW
Cosmos 2237 Rocket 3.9 20:10:08 22° NE 20:10:08 22° NE 20:12:05 10° NE
Cosmos 2369 Rocket 3.6 20:06:42 10° NNW 20:10:56 27° NE 20:10:56 27° NE
ATLAS 3B R/B 2.7 20:04:42 10° SW 20:11:41 90° NW 20:19:13 10° NE
USA 215 3.5 20:19:39 29° NE 20:23:13 67° NNW 20:29:41 10° WSW
CENTAUR R/B 4.1 20:16:42 10° NW 20:23:40 38° NNE 20:26:45 29° ENE
Spot 2 Rocket 4.3 20:25:32 48° NNW 20:25:32 48° NNW 20:29:10 10° NNW
NOSS 0 Rocket 4.0 20:24:46 75° NNW 20:24:46 75° NNW 20:30:40 10° NNE
Cosmos 1932 4.5 20:18:13 10° NW 20:24:19 77° W 20:24:19 77° W
Ariane Rocket 3.7 20:28:25 50° NW 20:28:25 50° NW 20:32:24 10° NNW
COSMOS 2455 3.9 20:26:03 10° NW 20:31:26 35° WSW 20:31:38 35° WSW
Terra 3.3 20:41:30 34° NNW 20:41:30 34° NNW 20:44:15 10° NNW
Cosmos 2219 Rocket 4.5 20:50:27 10° W 20:54:40 21° NW 20:58:55 10° N
Cosmos 1943 Rocket 3.4 20:56:58 10° NW 21:00:47 37° WNW 21:00:47 37° WNW
Cosmos 2278 Rocket 4.3 21:14:48 10° WNW 21:17:52 18° W 21:17:52 18° W
Lacrosse 5 3.9 21:17:21 10° NW 21:19:29 24° NW 21:19:29 24° NW
CZ-4C R/B 4.0 21:16:52 10° NW 21:22:37 33° NNE 21:23:43 31° NE
Cosmos 2237 Rocket 4.0 21:51:55 28° NNW 21:51:55 28° NNW 21:55:54 10° NNE
SL-16 R/B 4.3 21:56:20 20° NNE 21:56:20 20° NNE 21:58:03 10° NNE
Cosmos 2369 Rocket 4.1 21:50:25 10° NNW 21:52:42 25° NW 21:52:42 25° NW
ATLAS 3B R/B 4.1 21:56:46 10° W 22:03:21 37° NNW 22:10:21 10° NE
USA 215 4.2 22:07:03 43° NW 22:07:03 43° NW 22:11:59 10° WNW
CENTAUR R/B 3.5 22:07:29 10° NW 22:13:52 61° NNW 22:13:52 61° NNW
CZ-4C R/B 4.0 23:05:12 10° NW 23:08:48 36° NW 23:08:48 36° NW
SL-16 R/B 4.4 23:38:11 18° NNW 23:38:11 18° NNW 23:41:29 10° N
